Location: Harwich
(41.6860°N, 70.0760°W)
Time: 08:21:54
(UTC-05:00)

Daily predictions for brighter satellites

Satellite Brightness Start Highest point End
(mag) Time Altitude Azimuth Time Altitude Azimuth Time Altitude Azimuth
CENTAUR R/B 3.2 17:38:29 10° S 17:43:37 31° ESE 17:49:20 10° NE
Cosmos 1733 Rocket 3.2 17:40:47 10° SSE 17:44:57 48° E 17:49:06 10° NNE
Cosmos 1633 3.9 17:42:25 10° SE 17:44:59 19° E 17:47:34 10° NE
CZ-4C R/B 4.4 17:42:57 10° N 17:46:41 15° NNE 17:50:38 10° NE
Ariane Rocket 4.1 17:42:30 10° S 17:47:27 51° W 17:52:26 10° NNW
ERS-2 3.4 17:45:31 10° ESE 17:48:21 21° ENE 17:51:12 10° NNE
Cosmos 1812 3.3 17:47:56 10° N 17:51:32 35° ENE 17:55:06 10° SE
ALOS 2.3 17:47:05 10° SSE 17:51:45 83° ENE 17:56:27 10° N
Cosmos 2333 Rocket 3.2 17:47:42 10° NNW 17:53:12 53° WSW 17:58:39 10° S
Cosmos 2084 Rocket 4.1 17:48:59 10° SW 17:53:18 57° NW 17:57:27 10° NNE
SKYMED 2 3.6 17:50:22 10° NNE 17:54:44 88° WNW 17:59:04 10° SSW
Cosmos 2082 3.7 17:50:58 10° SSW 17:56:32 70° ESE 18:02:09 10° NNE
Cosmos 44 3.7 17:51:44 10° NNW 17:56:34 47° NE 18:01:37 10° SE
SL-8 R/B 3.8 17:52:58 10° SW 17:57:40 62° SE 18:02:24 10° ENE
MONITOR-E 4.1 17:54:52 10° SSE 17:57:53 88° ENE 18:00:55 10° N
Cosmos 2056 Rocket 4.1 17:54:49 10° NNW 18:00:13 67° WSW 18:05:34 10° S
Aureole 3 4.2 17:56:08 10° S 18:02:01 54° E 18:06:40 10° NNE
Resurs 01 Rocket 3.4 18:05:04 11° ENE 18:06:09 12° ENE 18:07:52 10° NE
Lacrosse 5 2.9 18:01:17 10° NW 18:06:09 49° SW 18:11:00 10° SSE
Cosmos 1452 Rocket 3.6 18:01:14 10° NNW 18:06:25 56° ENE 18:11:34 10° SE
DNEPR-1 R/B 3.9 18:03:07 10° SW 18:07:16 63° NW 18:11:36 10° NNE
SPOT 3 Rocket 3.5 18:03:50 10° SSE 18:09:01 77° ENE 18:14:15 10° N
BREEZE-M DEB (TANK) 2.7 18:08:24 10° NW 18:10:34 26° NNE 18:12:11 15° ENE
Iridium 4 Rocket 3.7 18:07:44 10° NNE 18:12:16 37° E 18:16:27 10° SSE
ATLAS 3B R/B 4.0 18:05:40 10° WSW 18:12:21 39° NW 18:18:49 10° NNE
Cosmos 158 Rocket 4.0 18:08:30 10° S 18:13:13 51° ESE 18:17:56 10° NNE
NOSS 3-2 (A) 4.3 18:09:34 10° SW 18:15:22 52° NW 18:21:51 10° NNE
Cosmos 1437 Rocket 3.9 18:14:57 10° SE 18:18:16 25° E 18:21:37 10° NE
EO 1 Del DPAF 3.2 18:16:04 10° NNE 18:19:55 87° ESE 18:23:44 10° SSW
Cosmos 1420 Rocket 4.0 18:21:50 10° NNW 18:27:07 69° ENE 18:32:23 10° SSE
Cosmos 405 3.9 18:24:50 10° SSW 18:28:14 52° WNW 18:31:41 10° N
Cosmos 1378 Rocket 3.5 18:24:14 10° N 18:28:37 61° E 18:32:59 10° SSE
USA 186 4.0 18:31:32 13° NE 18:31:32 13° NE 18:32:15 10° NNE
FengYun 1-2 T 4.2 18:29:23 10° SSE 18:34:54 86° ENE 18:40:25 10° NNW
Cosmos 1464 Rocket 3.9 18:29:42 10° N 18:35:51 77° E 18:41:59 10° SSE
Cosmos 1782 Rocket 3.9 18:31:48 10° SSE 18:35:59 42° E 18:40:09 10° NNE
Sich 1 Rocket 3.6 18:32:35 10° S 18:37:00 58° E 18:41:25 10° NNE
OAO 2 Rocket 4.3 18:38:57 10° SW 18:43:20 32° SSE 18:45:28 23° SE
Cosmos 1943 4.4 18:40:27 10° N 18:44:43 21° NE 18:45:18 21° ENE
ATLAS CENTAUR R/B 3.6 18:44:55 10° NNE 18:45:42 11° NNE 18:45:42 11° NNE
Okean 2 Rocket 3.4 18:49:15 10° SSE 18:53:20 39° E 18:57:25 10° NNE
ARGOS Delta rocket 3.8 18:48:58 10° NNE 18:53:47 57° E 18:58:17 10° S
USA 215 3.2 18:49:59 16° NE 18:55:18 72° SE 19:01:49 10° SW
SeaSat 1 2.4 18:53:05 20° SE 18:56:28 66° ENE 19:01:22 10° NNW
Cosmos 2227 Rocket 4.0 18:53:19 10° WSW 18:58:17 31° NW 19:03:17 10° N
Cosmos 2237 Rocket 4.5 18:54:10 10° NW 18:58:41 25° WSW 19:03:12 10° SSW
SJ-6B 2.6 18:55:19 10° SSE 18:59:05 87° WSW 19:02:56 10° NNW
Envisat 2.9 18:54:16 10° SSE 18:59:17 67° ENE 19:04:21 10° N
Thor Agena Rocket 3.4 18:55:27 10° NNE 19:00:33 73° ESE 19:05:35 10° S
SL-16 R/B 2.7 18:57:24 10° NNW 19:02:59 59° WSW 19:08:31 10° S
Tiangong 2 3.0 19:02:32 10° W 19:05:08 23° SSW 19:05:47 21° S
Cosmos 44 Rocket 3.9 19:01:51 10° NW 19:06:49 60° WSW 19:11:23 13° SSE
USA 32 4.2 19:02:00 10° S 19:07:13 76° W 19:12:28 10° N
Meteor 1-13 Rocket 4.2 19:02:25 10° N 19:07:52 55° ENE 19:10:13 32° SE
Cosmos 1269 Rocket 3.9 19:03:31 10° SSW 19:08:48 86° ESE 19:14:07 10° NNE
HJ-1C 4.5 19:07:50 10° S 19:11:08 45° W 19:14:26 10° NNW
Cosmos 2034 Rocket 4.1 19:04:51 10° N 19:11:16 78° W 19:17:35 10° S
Cosmos 2297 Rocket 4.1 19:07:28 10° WSW 19:12:18 28° NW 19:17:09 10° N
Okean 1 3.9 19:09:39 10° NNW 19:13:34 56° W 19:17:27 10° S
Cosmos 1110 Rocket 4.1 19:08:44 10° N 19:13:55 52° ENE 19:14:27 50° E
Cosmos 494 Rocket 4.4 19:11:41 10° S 19:15:36 42° SE 19:15:36 42° SE
Cosmos 2346 Rocket 4.3 19:14:04 10° S 19:20:13 71° E 19:26:22 10° NNE
Cosmos 921 Rocket 3.5 19:16:07 10° NNW 19:20:36 61° WSW 19:23:42 19° S
Cosmos 1603 3.6 19:15:53 10° NNW 19:21:32 66° ENE 19:22:38 54° ESE
ERS-2 4.5 19:18:48 10° SSW 19:21:52 25° W 19:24:58 10° NW
Cosmos 1634 Rocket 4.0 19:18:37 10° N 19:24:40 54° E 19:25:22 52° ESE
CZ-2D R/B 4.2 19:22:36 11° S 19:26:08 48° W 19:29:56 10° NNW
Cosmos 1816 Rocket 4.5 19:20:56 10° S 19:27:18 87° W 19:33:43 10° N
H-2A R/B 4.4 19:31:19 11° NNE 19:31:19 11° NNE 19:31:30 10° NNE
USA 267 3.6 19:27:11 41° ENE 19:28:34 47° NNE 19:34:45 10° NW
Resurs 1-3 3.7 19:30:55 69° N 19:30:55 69° N 19:34:48 10° NNW
CENTAUR R/B 3.3 19:28:01 10° WSW 19:33:54 50° NW 19:40:41 10° NNE
CZ-4C R/B 3.3 19:30:29 10° NNW 19:37:10 42° NE 19:37:38 42° NE
SL-8 R/B 4.4 19:35:46 10° W 19:40:22 46° NNW 19:40:31 46° N
Resurs 01 Rocket 2.0 19:42:38 61° NW 19:42:38 61° NW 19:46:27 10° NNW
Cosmos 2263 Rocket 4.5 19:37:12 10° S 19:37:15 10° S 19:37:15 10° S
Cosmos 1975 Rocket 4.3 19:38:33 10° NNW 19:42:44 41° W 19:46:31 12° SSW
Cosmos 1331 Rocket 4.0 19:41:36 10° NNW 19:46:26 74° NNW 19:46:26 74° NNW
Spot 2 Rocket 3.6 19:49:48 70° NW 19:49:48 70° NW 19:54:23 10° NNW
Geosat 4.2 19:51:12 61° NNW 19:51:46 67° WNW 19:56:44 10° SW
Meteor 1-11 Rocket 3.9 19:48:29 10° SSW 19:54:01 70° W 19:59:43 10° N
Meteor 2-4 Rocket 3.8 19:48:17 10° NNW 19:54:05 73° W 19:54:53 63° SSW
COSMOS 2455 3.6 19:55:45 10° SSW 19:59:33 41° SSW 19:59:33 41° SSW
ATLAS CENTAUR R/B 4.4 20:21:45 10° NNW 20:21:59 11° NNW 20:21:59 11° NNW
Cosmos 1943 4.4 20:23:38 10° NNW 20:27:09 38° NW 20:27:09 38° NW
USA 215 4.2 20:37:21 40° NNW 20:38:03 41° NNW 20:44:05 10° W
CZ-4C R/B 4.2 21:18:56 10° NW 21:22:51 33° WNW 21:22:51 33° WNW
